This demonstration page uses our WeatherBlox Daily Observations layout. Learn more.

Hourly Observations for October 10, 2019

Temp ( °F °C ) Dew Point ( °F °C ) Humidity (%) Winds ( mph kmh ) Pressure ( in mb ) Visibility ( mi km ) Precip ( " mm )
12:37 am 00:37 Cloudy with Thunderstorms 61 16.1 54 12.2 78 78 undefined N/A 29.77 1008 10 16.09344 0 0
12:54 am 00:54 Cloudy with Light Rain 59 15 54 12.2 83 83 undefined N/A 29.77 1008 4 6.437376 0.07 1.778
1:23 am 01:23 Cloudy with Nearby Thunderstorms 59 15 54 12.2 83 83 ENE 9 15 29.74 1007 10 16.09344 0.001 0.001
1:36 am 01:36 Cloudy with Light Thunderstorms 59 15 53 11.7 81 81 ESE 14 22 29.74 1007 8 12.874752 0.001 0.001
1:54 am 01:54 Cloudy with Light Thunderstorms 58 14.4 54 12.2 87 87 E 13 20 29.71 1006 8 12.874752 0.05 1.27
2:14 am 02:14 Cloudy with Heavy Thunderstorms 57 13.9 54 12.2 90 90 NNE 7 11 29.77 1008 1.75 2.816352 0.04 1.016
2:26 am 02:26 Cloudy with Light Thunderstorms 57 13.9 54 12.2 90 90 NE 12 19 29.77 1008 3 4.828032 0.32 8.128
2:39 am 02:39 Cloudy with Nearby Thunderstorms 57 13.9 54 12.2 90 90 NE 10 17 29.77 1008 10 16.09344 0.32 8.128
2:54 am 02:54 Cloudy 57 13.9 54 12.2 90 90 NE 9 15 29.74 1007 10 16.09344 0.32 8.128
3:02 am 03:02 Cloudy with Light Rain 57 13.9 54 12.2 90 90 ENE 8 13 29.77 1008 10 16.09344 0.001 0.001
3:11 am 03:11 Cloudy with Rain 57 13.9 54 12.2 90 90 ENE 8 13 29.77 1008 5 8.04672 0.01 0.254
3:26 am 03:26 Cloudy with Nearby Thunderstorms 57 13.9 54 12.2 90 90 E 7 11 29.77 1008 3 4.828032 0.04 1.016
3:35 am 03:35 Cloudy with Light Rain 57 13.9 55 12.8 93 93 ENE 6 9 29.74 1007 3 4.828032 0.05 1.27
3:54 am 03:54 Cloudy with Mist and Fog 57 13.9 55 12.8 93 93 N 8 13 29.71 1006 5 8.04672 0.06 1.524
3:57 am 03:57 Cloudy with Mist and Fog 57 13.9 55 12.8 93 93 N 8 13 29.74 1007 5 8.04672 0 0
4:25 am 04:25 Cloudy with Light Rain 57 13.9 55 12.8 93 93 NNE 13 20 29.74 1007 2.5 4.02336 0.001 0.001
4:47 am 04:47 Cloudy with Nearby Thunderstorms 57 13.9 55 12.8 93 93 NE 13 20 29.74 1007 1.75 2.816352 0.02 0.508
4:54 am 04:54 Cloudy with Nearby Thunderstorms 57 13.9 55 12.8 93 93 NE 14 22 29.74 1007 1.75 2.816352 0.04 1.016
5:02 am 05:02 Cloudy with Nearby Thunderstorms 57 13.9 54 12.2 90 90 NE 15 24 29.74 1007 1.25 2.01168 0.09 2.286
5:14 am 05:14 Cloudy with Light Thunderstorms 57 13.9 55 12.8 93 93 ENE 12 19 29.74 1007 2.5 4.02336 0.18 4.572
5:24 am 05:24 Cloudy with Light Thunderstorms 57 13.9 55 12.8 93 93 ENE 13 20 29.74 1007 3 4.828032 0.2 5.08
5:35 am 05:35 Cloudy with Light Thunderstorms 57 13.9 55 12.8 93 93 NE 12 19 29.74 1007 2.5 4.02336 0.2 5.08
5:38 am 05:38 Cloudy with Nearby Thunderstorms 57 13.9 55 12.8 93 93 ENE 12 19 29.74 1007 3 4.828032 0.21 5.334
5:49 am 05:49 Cloudy with Nearby Thunderstorms 57 14 55 13 94 94 E 10 17 29.71 1006 3 4.828032 0.22 5.588
5:54 am 05:54 Cloudy with Nearby Thunderstorms 57 13.9 55 12.8 93 93 E 12 19 29.71 1006 2.5 4.02336 0.22 5.588
6:02 am 06:02 Cloudy with Nearby Thunderstorms 57 13.9 55 12.8 93 93 E 10 17 29.74 1007 2.5 4.02336 0.01 0.254
6:15 am 06:15 Cloudy with Light Rain 57 13.9 56 13.3 96 96 ENE 5 7 29.74 1007 2.5 4.02336 0.02 0.508
6:30 am 06:30 Cloudy with Light Rain 58 14.4 56 13.3 93 93 ENE 5 7 29.71 1006 4 6.437376 0.02 0.508
6:54 am 06:54 Cloudy with Mist and Fog 58 14.4 56 13.3 93 93 ENE 6 9 29.71 1006 5 8.04672 0.03 0.762
7:06 am 07:06 Cloudy with Nearby Thunderstorms 59 15 56 13.3 90 90 E 6 9 29.71 1006 7 11.265408 0 0
7:17 am 07:17 Cloudy with Nearby Thunderstorms 59 15 56 13.3 90 90 E 6 9 29.71 1006 7 11.265408 0 0
7:25 am 07:25 Cloudy with Light Rain 59 15 56 13.3 90 90 ENE 9 15 29.68 1005 8 12.874752 0.001 0.001
7:54 am 07:54 Cloudy with Light Rain 59 15 56 13.3 90 90 ENE 6 9 29.71 1006 9 14.484096 0.01 0.254
8:54 am 08:54 Cloudy with Light Rain 59 15 57 13.9 93 93 N 6 9 29.74 1007 5 8.04672 0.01 0.254
9:45 am 09:45 Cloudy with Light Rain 52 11.1 49 9.4 89 89 NNW 18 30 29.77 1008 2 3.218688 0.05 1.27
9:54 am 09:54 Cloudy with Light Rain 51 10.6 48 8.9 89 89 NNW 22 35 29.77 1008 2.5 4.02336 0.06 1.524
10:03 am 10:03 Cloudy with Light Rain 50 10 47 8.3 89 89 NNW 23 37 29.8 1009 3 4.828032 0.01 0.254
10:11 am 10:11 Cloudy with Light Rain 49 9.4 46 7.8 90 90 NNW 25 41 29.8 1009 2.5 4.02336 0.01 0.254
10:21 am 10:21 Cloudy with Light Rain 48 8.9 45 7.2 89 89 NNW 24 39 29.8 1009 3 4.828032 0.01 0.254
10:54 am 10:54 Cloudy with Light Rain 46 7.8 42 5.6 86 86 NNW 22 35 29.8 1009 5 8.04672 0.01 0.254
11:09 am 11:09 Cloudy with Light Rain 45 7.2 42 5.6 90 90 NNW 22 35 29.85 1011 6 9.656064 0.001 0.001
11:27 am 11:27 Cloudy with Light Rain 45 7.2 42 5.6 90 90 NNW 20 31 29.85 1011 6 9.656064 0.001 0.001
11:54 am 11:54 Cloudy with Light Rain 44 6.7 41 5 89 89 NNW 20 31 29.83 1010 3 4.828032 0.001 0.001
12:11 pm 12:11 Cloudy with Light Rain 44 6.7 41 5 89 89 NNW 20 31 29.85 1011 3 4.828032 0.001 0.001
12:21 pm 12:21 Cloudy with Light Rain 43 6.1 40 4.4 89 89 NNW 20 31 29.88 1012 3 4.828032 0.001 0.001
12:33 pm 12:33 Cloudy with Light Rain 43 6.1 40 4.4 89 89 NNW 17 28 29.88 1012 3 4.828032 0.01 0.254
12:54 pm 12:54 Cloudy with Light Rain 43 6.1 40 4.4 89 89 NNW 15 24 29.83 1010 2 3.218688 0.01 0.254
1:03 pm 13:03 Cloudy with Light Rain 43 6.1 40 4.4 89 89 NNW 22 35 29.88 1012 1.5 2.414016 0.001 0.001
1:11 pm 13:11 Cloudy with Light Rain 43 6.1 40 4.4 89 89 NW 18 30 29.88 1012 1.75 2.816352 0.001 0.001
1:23 pm 13:23 Cloudy with Light Rain 42 5.6 39 3.9 89 89 NNW 20 31 29.88 1012 2 3.218688 0.001 0.001
1:37 pm 13:37 Cloudy with Light Rain 42 5.6 39 3.9 89 89 NNW 21 33 29.85 1011 4 6.437376 0.001 0.001
1:50 pm 13:50 Cloudy with Light Rain 43 6 39 4 87 87 NNW 22 35 29.88 1012 4 6.437376 0.001 0.001
1:54 pm 13:54 Cloudy with Light Rain 42 5.6 39 3.9 89 89 NNW 20 31 29.83 1010 3 4.828032 0.001 0.001
2:01 pm 14:01 Cloudy with Light Rain 42 5.6 39 3.9 89 89 NNW 17 28 29.88 1012 1.75 2.816352 0.001 0.001
2:09 pm 14:09 Cloudy with Light Rain 42 5.6 39 3.9 89 89 NW 22 35 29.88 1012 2 3.218688 0.001 0.001
2:21 pm 14:21 Cloudy with Light Rain 41 5 38 3.3 89 89 NNW 23 37 29.88 1012 4 6.437376 0.001 0.001
2:39 pm 14:39 Cloudy with Light Rain 41 5 38 3.3 89 89 NNW 22 35 29.88 1012 2.5 4.02336 0.001 0.001
2:54 pm 14:54 Cloudy with Light Rain 41 5 37 2.8 86 86 NNW 23 37 29.85 1011 5 8.04672 0.001 0.001
3:08 pm 15:08 Cloudy with Mist and Fog 41 5 37 2.8 86 86 NNW 21 33 29.88 1012 5 8.04672 0.001 0.001
3:45 pm 15:45 Cloudy with Light Rain 41 5 37 2.8 86 86 NW 17 28 29.91 1013 5 8.04672 0.001 0.001
3:51 pm 15:51 Cloudy with Light Rain 41 5 37 3 87 87 NW 15 24 29.91 1013 3 4.828032 0.001 0.001
3:54 pm 15:54 Cloudy with Light Rain 40 4.4 37 2.8 89 89 NW 17 28 29.88 1012 2.5 4.02336 0.001 0.001
4:03 pm 16:03 Cloudy with Light Rain 41 5 37 2.8 86 86 NNW 23 37 29.91 1013 5 8.04672 0.001 0.001
4:18 pm 16:18 Cloudy 40 4.4 36 2.2 86 86 NNW 22 35 29.91 1013 10 16.09344 0.001 0.001
4:26 pm 16:26 Cloudy with Light Rain 40 4.4 36 2.2 86 86 NNW 20 31 29.94 1014 3 4.828032 0.001 0.001
4:28 pm 16:28 Cloudy with Light Rain 40 4.4 37 2.8 89 89 NNW 17 28 29.94 1014 2.5 4.02336 0.001 0.001
4:39 pm 16:39 Cloudy with Light Rain 40 4.4 37 2.8 89 89 NNW 20 31 29.94 1014 2.5 4.02336 0.001 0.001
4:46 pm 16:46 Cloudy with Light Rain 40 4.4 37 2.8 89 89 NNW 18 30 29.94 1014 5 8.04672 0.001 0.001
4:54 pm 16:54 Cloudy 40 4.4 37 2.8 89 89 NNW 22 35 29.91 1013 10 16.09344 0.001 0.001
5:08 pm 17:08 Cloudy with Mist and Fog 40 4.4 37 2.8 89 89 NNW 23 37 29.94 1014 5 8.04672 0 0
5:54 pm 17:54 Cloudy with Light Rain 39 3.9 35 1.7 86 86 NW 21 33 29.94 1014 5 8.04672 0.001 0.001
6:04 pm 18:04 Cloudy 39 3.9 35 1.7 86 86 NW 17 28 29.97 1015 10 16.09344 0.001 0.001
6:54 pm 18:54 Cloudy 39 3.9 34 1.1 82 82 NW 17 28 29.97 1015 8 12.874752 0.001 0.001
7:54 pm 19:54 Cloudy 39 3.9 32 0 76 76 NW 22 35 30 1016 10 16.09344 0 0
8:54 pm 20:54 Cloudy 38 3.3 32 0 79 79 NW 17 28 30.03 1017 10 16.09344 0 0
9:54 pm 21:54 Cloudy 38 3.3 30 -1.1 73 73 NW 17 28 30.06 1018 10 16.09344 0 0
10:54 pm 22:54 Mostly Cloudy 38 3.3 29 -1.7 70 70 NW 18 30 30.09 1019 10 16.09344 0 0
11:14 pm 23:14 Cloudy 38 3.3 29 -1.7 70 70 WNW 16 26 30.15 1021 10 16.09344 0 0
11:54 pm 23:54 Cloudy 38 3.3 29 -1.7 70 70 NW 17 28 30.09 1019 10 16.09344 0 0

Powered by AerisWeather